This is the latest recevied weather packets stored in our database for station/object W8KHW. If no packets are shown the sender has not sent any weather packets the latest 10 day(s).
| Time | Temp. | Humidity | Pressure | Rain* | Wind** | Luminosity | Snow |
|---|---|---|---|---|---|---|---|
| 1778057522 | 7.78° C | 99% | 1008.2 hPa | 1.52 mm | - | - | - |
| 1778057022 | 7.78° C | 99% | 1008.3 hPa | 1.27 mm | - | - | - |
| 1778056522 | 7.78° C | 99% | 1008.7 hPa | 1.27 mm | - | - | - |
| 1778056022 | 7.78° C | 99% | 1008.4 hPa | 1.02 mm | - | - | - |
| 1778055522 | 7.78° C | 99% | 1008 hPa | 0.76 mm | - | - | - |
| 1778055021 | 7.78° C | 99% | 1008.4 hPa | 0.51 mm | - | - | - |
| 1778054521 | 7.78° C | 99% | 1008 hPa | 0.51 mm | - | - | - |
| 1778054021 | 7.78° C | 99% | 1007.8 hPa | 0.76 mm | - | - | - |
| 1778053521 | 7.78° C | 99% | 1007.8 hPa | 1.27 mm | - | - | - |
| 1778053020 | 7.78° C | 99% | 1007.7 hPa | 1.52 mm | - | - | - |
| 1778052520 | 7.78° C | 99% | 1007.4 hPa | 1.78 mm | - | - | - |
| 1778052020 | 7.78° C | 99% | 1007.8 hPa | 2.03 mm | - | - | - |
| 1778051520 | 8.33° C | 99% | 1007.8 hPa | 2.29 mm | - | - | - |
| 1778051020 | 8.33° C | 99% | 1007.5 hPa | 2.54 mm | - | - | - |
| 1778050520 | 8.33° C | 99% | 1007.7 hPa | 2.79 mm | - | - | - |
| 1778050020 | 8.33° C | 99% | 1007.5 hPa | 2.54 mm | - | - | - |
| 1778049520 | 8.33° C | 99% | 1007.5 hPa | 2.29 mm | - | - | - |
| 1778049020 | 8.89° C | 99% | 1007.7 hPa | 2.29 mm | - | - | - |
| 1778048519 | 8.89° C | 99% | 1007.9 hPa | 1.78 mm | - | - | - |
| 1778048019 | 8.89° C | 99% | 1007.9 hPa | 1.78 mm | - | - | - |
| 1778047519 | 8.89° C | 99% | 1008.1 hPa | 1.78 mm | - | - | - |
| 1778047019 | 9.44° C | 99% | 1008 hPa | 1.52 mm | - | - | - |
| 1778046519 | 9.44° C | 99% | 1007.8 hPa | 1.27 mm | - | - | - |
| 1778046019 | 8.89° C | 99% | 1007.7 hPa | 1.02 mm | - | - | - |
| 1778045519 | 9.44° C | 99% | 1007.7 hPa | 1.02 mm | - | - | - |
* Rain latest hour (hover to see other rain measurements)
** Current wind speed in m/s (hover to see current wind gust speed)